THORAD AGENA D DEB, 4759

Orbit data source: Space-Track

THORAD AGENA D DEB, 4759 is space debris in SSO originally from a launch on Wed, 08 Apr 1970 UTC launched from the Air Force Western Test Range (AFWTR). Debris objects in space refer to the collection of defunct objects orbiting the Earth. Examples of debris include non-operational satellites, rocket bodies, and fragments generated from explosions, collisions, or faulty payload assembly.

Loading next visibility...
Identifier
4759, 1970-025DH
Orbit
SSO
Country
Flag of USUS
Related business
Manufacturer
Unknown
Mission
Spacecraft
Bus & Motor
Unknown
Mass
Unknown
Launch date (UTC)
1970-04-08 (56 years ago)
Launch vehicle
Unknown
Launch site
Air Force Western Test Range (AFWTR)
Object type
Payload
Rocket body
Debris
Shape & HBR
Unknown shape, 0.1 m
Radar Cross Section
Small (<0.1 m²)

Expand to show TLE details & history
Last TLE update: 7 hours ago

TLE from 7 hours ago
0 THORAD AGENA D DEB
1  4759U 70025DH  26037.00048093  .00000934  00000-0  10167-2 0  9994
2  4759 100.0545  38.6799 0001535 231.2474 193.6945 13.75804911776883
Epoch: 2026-02-06T00:00Z
TLE epoch observation values (Epoch: 2026-02-06T00:00:41.552Z)
Latitude
63.20881°
Longitude
-118.08372°
Altitude
990.678 km
Speed
7.362 km/s
True Right ascension
01h 12m 56s
True Declination
63° 04' 28"
Sunlit
Object was in daylight at epoch
Visualization orbit readout
Latitude
Unknown
Longitude
Unknown
Altitude
Unknown
Speed
Unknown
Apparent Right ascension
Unknown
Apparent Declination
Unknown
Sunlit
N/A
Visualization observer readout
Local Sidereal Time
08:52:39
Azimuth
Unknown
Elevation
Unknown
Doppler factor
Unknown
Orbital elements
Apogee altitude
977.219 km
Perigee altitude
974.961 km
Semi-major axis
7,354.227 km
Eccentricity
0.00015
Inclination
100.0545°
RAAN
38.6799°
Arg. of periapsis
231.2474°
True anomaly
193.69034°
Mean anomaly
193.6945°
Eccentric anomaly
193.69242°
Mean motion
3.44142 °/min
Orbital period
104.61 mins
BSTAR
0.0010167

Documentation

Showing up to 5 results
|